Overview Statistics Trail Chart Weather Telemetry Raw packets
 

This is the latest recevied weather packets stored in our database for station/object KO4LCK. If no packets are shown the sender has not sent any weather packets the latest 10 day(s).

<< 72 73 74 75 76 77 78 >>
Time Temp. Humidity Pressure Rain* Wind** Luminosity Snow
1788129346 31.67° C 55% 1019.6 hPa 0 mm - 59 W/m² -
1788129045 32.22° C 53% 1019.7 hPa 0 mm - 59 W/m² -
1788128740 32.22° C 51% 1019.5 hPa 0 mm - 92 W/m² -
1788128436 32.22° C 50% 1019.4 hPa 0 mm - 138 W/m² -
1788128132 32.78° C 51% 1019.2 hPa 0 mm - 80 W/m² -
1788127828 32.78° C 51% 1019.3 hPa 0 mm - 128 W/m² -
1788127527 32.78° C 52% 1019.2 hPa 0 mm - 227 W/m² -
1788127225 32.22° C 53% 1019.4 hPa 0 mm - 278 W/m² -
1788126920 31.67° C 56% 1019.5 hPa 0 mm - 300 W/m² -
1788126614 31.67° C 56% 1019.5 hPa 0 mm - 141 W/m² -
1788126309 32.22° C 58% 1019.5 hPa 0 mm - 111 W/m² -
1788126004 32.22° C 49% 1019.4 hPa 0 mm - 92 W/m² -
1788125699 32.22° C 52% 1019.5 hPa 0 mm - 117 W/m² -
1788125394 32.22° C 51% 1019.7 hPa 0 mm - 112 W/m² -
1788125090 32.22° C 52% 1019.6 hPa 0 mm - 103 W/m² -
1788124789 32.78° C 52% 1019.4 hPa 0 mm - 103 W/m² -
1788124484 32.78° C 52% 1019.4 hPa 0 mm - 122 W/m² -
1788124180 32.78° C 51% 1019.6 hPa 0 mm - 120 W/m² -
1788123879 32.78° C 50% 1019.6 hPa 0 mm - 116 W/m² -
1788123577 32.78° C 50% 1019.6 hPa 0 mm - 120 W/m² -
1788123276 32.78° C 49% 1019.5 hPa 0 mm - 182 W/m² -
1788122972 33.33° C 50% 1019.7 hPa 0 mm - 130 W/m² -
1788122671 33.33° C 50% 1019.9 hPa 0 mm - 132 W/m² -
1788122366 34.44° C 48% 1019.8 hPa 0 mm - 154 W/m² -
1788122063 35° C 47% 1020 hPa 0 mm - 528 W/m² -

* Rain latest hour (hover to see other rain measurements)
** Current wind speed in m/s (hover to see current wind gust speed)